Location: Rowland
(34.5359°N, 79.2929°W)
Time: 20:06:46
(UTC+00:00)

Transit 2A Rocket - Pass Details

Date: 03 October 2022
Orbit: 589 x 911 km, 66.7° (Epoch: 03 December)

Event Time Altitude Azimuth Distance (km) Brightness Sun altitude
Rises 19:06:41 0° 346° (NNW) 3,031 7.9 42.0°
Reaches altitude 10° 19:09:14 10° 358° (N) 2,166 7.1 41.6°
Maximum altitude 19:13:27 28° 57° (ENE) 1,378 6.2 41.0°
Drops below altitude 10° 19:18:00 10° 115° (ESE) 2,342 7.5 40.4°
Sets 19:20:51 0° 127° (SE) 3,327 8.2 40.0°
